TimeEDT,TemperatureF,Dew PointF,Humidity,Sea Level PressureIn,VisibilityMPH,Wind Direction,Wind SpeedMPH,Gust SpeedMPH,PrecipitationIn,Events,Conditions,WindDirDegrees,DateUTC
12:00 AM,57.2,42.8,59,30.07,9.0,ESE,5.8,-,N/A,,Clear,110,2013-05-19 04:00:00
1:00 AM,57.2,41.0,55,30.07,9.0,SE,3.5,-,N/A,,Clear,140,2013-05-19 05:00:00
2:00 AM,29,28,94,30.43,,Calm,Calm,,,,,,2013-05-19 06:00:00
2:00 AM,55.4,42.8,63,30.06,9.0,Variable,2.3,-,N/A,,Clear,0,2013-05-19 06:00:00
3:00 AM,55.4,44.6,67,30.02,9.0,SE,6.9,-,N/A,,Clear,130,2013-05-19 07:00:00
4:00 AM,57.2,46.4,67,30.02,9.0,SE,6.9,-,N/A,,Clear,130,2013-05-19 08:00:00
5:00 AM,57.2,46.4,67,30.02,9.0,SE,5.8,-,N/A,,Clear,140,2013-05-19 09:00:00
6:00 AM,55.4,48.2,77,30.04,9.0,SSE,3.5,-,N/A,,Clear,160,2013-05-19 10:00:00
7:00 AM,57.2,50.0,77,30.05,9.0,SSE,6.9,-,N/A,,Clear,160,2013-05-19 11:00:00
8:00 AM,39,33,73,30.46,,NNW,4.6,,,,,330,2013-05-19 12:00:00
8:00 AM,60.8,53.6,77,30.05,9.0,SSE,9.2,-,N/A,,Partly Cloudy,160,2013-05-19 12:00:00
9:00 AM,66.2,59.0,78,30.04,9.0,South,11.5,-,N/A,,Clear,180,2013-05-19 13:00:00
10:00 AM,69.8,60.8,73,30.02,9.0,South,11.5,-,N/A,,Clear,170,2013-05-19 14:00:00
11:00 AM,75.2,62.6,65,30.02,9.0,SSW,8.1,-,N/A,,Clear,210,2013-05-19 15:00:00
12:00 PM,78.8,62.6,57,30.01,9.0,South,10.4,-,N/A,,Clear,170,2013-05-19 16:00:00
1:00 PM,80.6,62.6,54,29.98,9.0,SSW,10.4,-,N/A,,Clear,210,2013-05-19 17:00:00
2:00 PM,57,29,22,30.37,,East,3.5,,,,,80,2013-05-19 18:00:00
2:00 PM,82.4,62.6,51,29.96,9.0,South,10.4,18.4,N/A,,Mostly Cloudy,180,2013-05-19 18:00:00
3:00 PM,82.4,60.8,48,29.95,9.0,SSW,10.4,17.3,N/A,,Mostly Cloudy,210,2013-05-19 19:00:00
4:00 PM,84.2,60.8,45,29.95,9.0,WSW,11.5,18.4,N/A,,Mostly Cloudy,250,2013-05-19 20:00:00
5:00 PM,84.2,59.0,42,29.94,9.0,WSW,13.8,-,N/A,,Partly Cloudy,240,2013-05-19 21:00:00
6:00 PM,84.2,57.2,40,29.92,9.0,SSW,9.2,-,N/A,,Clear,200,2013-05-19 22:00:00
7:00 PM,82.4,59.0,45,29.91,9.0,South,11.5,17.3,N/A,,Clear,180,2013-05-19 23:00:00
8:00 PM,47,34,49,30.31,,SE,3.5,,,,,140,2013-05-20 00:00:00
8:00 PM,78.8,60.8,54,29.90,9.0,SSE,11.5,-,N/A,,Clear,160,2013-05-20 00:00:00
9:00 PM,75.2,60.8,61,29.92,9.0,South,9.2,-,N/A,,Clear,170,2013-05-20 01:00:00
10:00 PM,73.4,60.8,65,29.94,9.0,South,9.2,-,N/A,,Clear,170,2013-05-20 02:00:00
10:41 PM,69.8,60.8,73,29.94,2.5,SSE,8.1,-,N/A,,Haze,160,2013-05-20 02:41:00
10:51 PM,69.8,59.0,68,29.94,8.0,SSE,11.5,-,N/A,,Clear,160,2013-05-20 02:51:00
11:00 PM,68.0,59.0,73,29.94,9.0,South,11.5,-,N/A,,Clear,170,2013-05-20 03:00:00